Location: STAR School
(35.3054°N, 111.2976°W)
Time: 21:18:39
(UTC-07:00)

Transit 4A - Visible Passes

Search period start: 15 October 2019 00:00
Search period end: 25 October 2019 00:00
Orbit: 866 x 978 km, 66.8° (Epoch: 15 October)

Date Brightness Start Highest point End Pass type
(mag) Time Alt. Az. Time Alt. Az. Time Alt. Az.
15 Oct 9.8 04:52:59 10° SSE 04:58:26 30° ESE 05:03:49 10° NE visible
16 Oct 9.0 05:01:34 10° S 05:07:37 47° ESE 05:13:35 10° NE visible
17 Oct 8.2 05:10:32 10° SSW 05:16:51 72° ESE 05:23:07 10° NNE visible
18 Oct 10.6 03:37:20 10° SE 03:40:33 14° ESE 03:43:45 10° ENE visible
18 Oct 7.9 05:19:48 10° SSW 05:26:11 78° WNW 05:32:29 10° NNE visible
19 Oct 10.0 03:44:48 10° SSE 03:49:37 23° ESE 03:54:24 10° NE visible
19 Oct 8.1 05:29:23 10° SW 05:35:34 52° WNW 05:41:41 10° NNE visible
20 Oct 9.3 03:55:14 20° SSE 03:58:46 36° ESE 04:04:23 10° NE visible
20 Oct 8.6 05:39:18 10° WSW 05:45:04 35° NW 05:50:45 10° N visible
21 Oct 8.5 04:06:04 40° SSE 04:07:58 55° ESE 04:14:04 10° NE visible
21 Oct 9.0 05:49:41 10° WSW 05:54:38 25° NW 05:59:38 10° N visible
22 Oct 7.9 04:16:34 72° S 04:17:14 83° ESE 04:23:32 10° NNE visible
22 Oct 9.4 06:00:18 10° W 06:04:18 17° NW 06:08:17 10° N visible
23 Oct 10.5 02:43:13 14° ENE 02:43:13 14° ENE 02:44:44 10° ENE visible
23 Oct 7.9 04:26:48 67° NW 04:26:48 67° NW 04:32:50 10° NNE visible
23 Oct 9.7 06:11:56 10° WNW 06:14:05 12° NW 06:16:14 10° NNW visible
24 Oct 10.3 02:53:16 17° ENE 02:53:16 17° ENE 02:55:05 10° NE visible
24 Oct 8.4 04:36:50 43° NW 04:36:50 43° NW 04:42:00 10° NNE visible
